Time,TemperatureF,DewpointF,PressureIn,WindDirection,WindDirectionDegrees,WindSpeedMPH,WindSpeedGustMPH,Humidity,HourlyPrecipIn,Conditions,Clouds,dailyrainin,SoftwareType,DateUTC
2013-02-11 00:10:00,42.5,42.0,30.08,South,172,0.0,3.0,96,0.00,,,0.33,weatherlink.com 1.10,2013-02-11 05:10:00,
2013-02-11 00:25:00,43.9,43.0,30.08,South,173,3.0,8.0,97,0.01,,,0.34,weatherlink.com 1.10,2013-02-11 05:25:00,
2013-02-11 00:40:00,44.2,43.0,30.07,South,174,3.0,7.0,97,0.01,,,0.00,weatherlink.com 1.10,2013-02-11 05:40:00,
2013-02-11 00:55:00,44.3,44.0,30.07,South,170,5.0,9.0,97,0.01,,,0.00,weatherlink.com 1.10,2013-02-11 05:55:00,
2013-02-11 01:10:00,44.7,44.0,30.07,South,173,3.0,7.0,97,0.01,,,0.00,weatherlink.com 1.10,2013-02-11 06:10:00,
2013-02-11 01:25:00,45.2,44.0,30.06,South,173,1.0,7.0,97,0.00,,,0.00,weatherlink.com 1.10,2013-02-11 06:25:00,
2013-02-11 01:40:00,45.2,44.0,30.05,South,173,1.0,5.0,97,0.00,,,0.00,weatherlink.com 1.10,2013-02-11 06:40:00,
2013-02-11 01:55:00,45.0,44.0,30.06,South,173,2.0,4.0,97,0.00,,,0.00,weatherlink.com 1.10,2013-02-11 06:55:00,
2013-02-11 02:10:00,45.7,45.0,30.05,South,176,7.0,8.0,97,0.00,,,0.00,weatherlink.com 1.10,2013-02-11 07:10:00,
2013-02-11 02:25:00,46.5,46.0,30.04,South,173,4.0,10.0,97,0.00,,,0.00,weatherlink.com 1.10,2013-02-11 07:25:00,
2013-02-11 02:40:00,46.9,46.0,30.04,South,172,6.0,10.0,97,0.00,,,0.00,weatherlink.com 1.10,2013-02-11 07:40:00,
2013-02-11 02:55:00,46.9,46.0,30.02,South,173,8.0,11.0,97,0.00,,,0.00,weatherlink.com 1.10,2013-02-11 07:55:00,
2013-02-11 03:10:00,46.4,46.0,30.02,South,173,1.0,6.0,97,0.00,,,0.00,weatherlink.com 1.10,2013-02-11 08:10:00,
2013-02-11 03:25:00,46.7,46.0,30.02,South,173,0.0,8.0,97,0.00,,,0.00,weatherlink.com 1.10,2013-02-11 08:25:00,
2013-02-11 03:41:00,46.9,46.0,30.03,South,173,0.0,3.0,97,0.00,,,0.00,weatherlink.com 1.10,2013-02-11 08:41:00,
2013-02-11 03:59:00,47.0,46.0,30.02,South,173,1.0,2.0,97,0.00,,,0.00,weatherlink.com 1.10,2013-02-11 08:59:00,
2013-02-11 04:10:00,47.5,47.0,30.01,South,172,1.0,8.0,97,0.02,,,0.02,weatherlink.com 1.10,2013-02-11 09:10:00,
2013-02-11 04:25:00,47.8,47.0,30.01,South,170,2.0,10.0,97,0.02,,,0.02,weatherlink.com 1.10,2013-02-11 09:25:00,
2013-02-11 04:40:00,47.7,47.0,30.01,SSE,168,1.0,7.0,97,0.02,,,0.02,weatherlink.com 1.10,2013-02-11 09:40:00,
2013-02-11 04:55:00,47.7,47.0,30.02,South,173,2.0,8.0,97,0.02,,,0.02,weatherlink.com 1.10,2013-02-11 09:55:00,
2013-02-11 05:10:00,47.7,47.0,30.03,SSE,168,3.0,11.0,97,0.00,,,0.02,weatherlink.com 1.10,2013-02-11 10:10:00,
2013-02-11 05:26:00,47.6,47.0,30.03,South,173,2.0,12.0,97,0.01,,,0.03,weatherlink.com 1.10,2013-02-11 10:26:00,
2013-02-11 05:40:00,47.5,47.0,30.02,South,172,5.0,13.0,97,0.05,,,0.07,weatherlink.com 1.10,2013-02-11 10:40:00,
2013-02-11 05:55:00,47.3,47.0,30.02,South,173,3.0,9.0,97,0.08,,,0.10,weatherlink.com 1.10,2013-02-11 10:55:00,
2013-02-11 06:10:00,47.1,46.0,30.00,SSE,162,9.0,10.0,97,0.09,,,0.11,weatherlink.com 1.10,2013-02-11 11:10:00,
2013-02-11 06:25:00,47.2,46.0,30.00,South,170,6.0,9.0,97,0.08,,,0.11,weatherlink.com 1.10,2013-02-11 11:25:00,
2013-02-11 06:41:00,47.5,47.0,30.00,South,174,4.0,9.0,97,0.03,,,0.11,weatherlink.com 1.10,2013-02-11 11:41:00,
2013-02-11 06:55:00,47.9,47.0,30.00,South,170,2.0,11.0,97,0.01,,,0.11,weatherlink.com 1.10,2013-02-11 11:55:00,
2013-02-11 07:28:00,48.7,48.0,30.00,South,172,3.0,7.0,97,0.00,,,0.11,weatherlink.com 1.10,2013-02-11 12:28:00,
2013-02-11 07:56:00,48.7,48.0,30.00,SSE,163,10.0,12.0,97,0.00,,,0.11,weatherlink.com 1.10,2013-02-11 12:56:00,
2013-02-11 08:11:00,48.6,48.0,30.00,SSE,167,7.0,10.0,97,0.00,,,0.11,weatherlink.com 1.10,2013-02-11 13:11:00,
2013-02-11 08:26:00,48.9,48.0,30.01,South,169,2.0,11.0,97,0.00,,,0.11,weatherlink.com 1.10,2013-02-11 13:26:00,
2013-02-11 08:41:00,49.2,48.0,30.01,SSE,167,9.0,13.0,97,0.00,,,0.11,weatherlink.com 1.10,2013-02-11 13:41:00,
2013-02-11 08:56:00,49.5,49.0,30.01,South,172,4.0,8.0,97,0.00,,,0.11,weatherlink.com 1.10,2013-02-11 13:56:00,
2013-02-11 09:11:00,49.6,49.0,30.01,South,172,2.0,10.0,97,0.00,,,0.11,weatherlink.com 1.10,2013-02-11 14:11:00,
2013-02-11 09:26:00,49.9,49.0,30.01,SSE,163,11.0,13.0,97,0.00,,,0.11,weatherlink.com 1.10,2013-02-11 14:26:00,
2013-02-11 09:41:00,49.9,49.0,30.00,SSE,168,3.0,9.0,97,0.00,,,0.11,weatherlink.com 1.10,2013-02-11 14:41:00,
2013-02-11 09:56:00,50.6,50.0,30.00,South,170,2.0,10.0,97,0.00,,,0.11,weatherlink.com 1.10,2013-02-11 14:56:00,
2013-02-11 10:11:00,53.1,52.0,29.99,South,172,2.0,12.0,96,0.00,,,0.11,weatherlink.com 1.10,2013-02-11 15:11:00,
2013-02-11 10:26:00,54.3,52.0,29.99,South,169,4.0,11.0,90,0.00,,,0.11,weatherlink.com 1.10,2013-02-11 15:26:00,
2013-02-11 10:41:00,53.6,51.0,30.00,South,170,4.0,11.0,91,0.00,,,0.11,weatherlink.com 1.10,2013-02-11 15:41:00,
2013-02-11 10:56:00,53.8,51.0,30.00,South,169,7.0,10.0,91,0.00,,,0.11,weatherlink.com 1.10,2013-02-11 15:56:00,
2013-02-11 11:11:00,54.0,52.0,30.00,SSE,165,9.0,9.0,91,0.00,,,0.11,weatherlink.com 1.10,2013-02-11 16:11:00,
2013-02-11 11:26:00,54.0,52.0,30.00,South,172,6.0,11.0,91,0.00,,,0.11,weatherlink.com 1.10,2013-02-11 16:26:00,
2013-02-11 11:41:00,53.4,51.0,30.01,SSE,167,0.0,10.0,92,0.00,,,0.11,weatherlink.com 1.10,2013-02-11 16:41:00,
2013-02-11 11:56:00,53.8,51.0,30.01,South,172,0.0,4.0,91,0.00,,,0.11,weatherlink.com 1.10,2013-02-11 16:56:00,
2013-02-11 12:11:00,53.9,51.0,29.99,South,172,1.0,5.0,89,0.00,,,0.11,weatherlink.com 1.10,2013-02-11 17:11:00,
2013-02-11 12:27:00,53.9,51.0,29.98,South,170,1.0,7.0,89,0.00,,,0.11,weatherlink.com 1.10,2013-02-11 17:27:00,
2013-02-11 12:41:00,53.8,51.0,29.97,South,173,4.0,8.0,89,0.00,,,0.11,weatherlink.com 1.10,2013-02-11 17:41:00,
2013-02-11 12:57:00,53.8,51.0,29.96,South,169,0.0,6.0,89,0.00,,,0.11,weatherlink.com 1.10,2013-02-11 17:57:00,
2013-02-11 13:11:00,54.1,51.0,29.96,South,176,4.0,7.0,88,0.00,,,0.11,weatherlink.com 1.10,2013-02-11 18:11:00,
2013-02-11 13:26:00,54.4,51.0,29.97,South,170,4.0,12.0,87,0.00,,,0.11,weatherlink.com 1.10,2013-02-11 18:26:00,
2013-02-11 13:41:00,53.7,50.0,29.98,SSE,163,9.0,12.0,86,0.00,,,0.11,weatherlink.com 1.10,2013-02-11 18:41:00,
2013-02-11 13:56:00,53.2,49.0,29.97,South,173,7.0,22.0,86,0.00,,,0.11,weatherlink.com 1.10,2013-02-11 18:56:00,
2013-02-11 14:11:00,53.3,49.0,29.96,South,170,5.0,15.0,85,0.00,,,0.11,weatherlink.com 1.10,2013-02-11 19:11:00,
2013-02-11 14:26:00,53.4,48.0,29.95,South,172,7.0,16.0,83,0.00,,,0.11,weatherlink.com 1.10,2013-02-11 19:26:00,
2013-02-11 14:41:00,53.2,48.0,29.95,SSE,159,14.0,14.0,82,0.00,,,0.11,weatherlink.com 1.10,2013-02-11 19:41:00,
2013-02-11 14:56:00,53.3,48.0,29.95,South,173,2.0,20.0,81,0.00,,,0.11,weatherlink.com 1.10,2013-02-11 19:56:00,
2013-02-11 15:11:00,53.6,48.0,29.94,South,169,6.0,18.0,80,0.00,,,0.11,weatherlink.com 1.10,2013-02-11 20:11:00,
2013-02-11 15:26:00,53.2,48.0,29.95,South,172,4.0,15.0,81,0.00,,,0.11,weatherlink.com 1.10,2013-02-11 20:26:00,
2013-02-11 15:41:00,53.0,47.0,29.95,South,174,5.0,17.0,80,0.00,,,0.11,weatherlink.com 1.10,2013-02-11 20:41:00,
2013-02-11 15:57:00,52.8,46.0,29.95,South,169,8.0,18.0,78,0.00,,,0.11,weatherlink.com 1.10,2013-02-11 20:57:00,
2013-02-11 16:11:00,52.6,45.0,29.95,South,173,6.0,12.0,75,0.00,,,0.11,weatherlink.com 1.10,2013-02-11 21:11:00,
2013-02-11 16:27:00,52.5,43.0,29.95,South,173,1.0,14.0,70,0.00,,,0.11,weatherlink.com 1.10,2013-02-11 21:27:00,
2013-02-11 16:42:00,52.4,43.0,29.95,South,174,2.0,10.0,70,0.00,,,0.11,weatherlink.com 1.10,2013-02-11 21:42:00,
2013-02-11 16:57:00,51.7,43.0,29.95,South,176,2.0,10.0,72,0.00,,,0.11,weatherlink.com 1.10,2013-02-11 21:57:00,
2013-02-11 17:12:00,50.9,42.0,29.96,South,176,2.0,9.0,71,0.00,,,0.11,weatherlink.com 1.10,2013-02-11 22:12:00,
2013-02-11 17:27:00,50.7,37.0,29.96,SSE,165,3.0,13.0,60,0.00,,,0.11,weatherlink.com 1.10,2013-02-11 22:27:00,
2013-02-11 17:42:00,50.6,33.0,29.95,SSE,167,4.0,14.0,52,0.00,,,0.11,weatherlink.com 1.10,2013-02-11 22:42:00,
2013-02-11 17:57:00,50.3,30.0,29.94,South,172,3.0,12.0,46,0.00,,,0.11,weatherlink.com 1.10,2013-02-11 22:57:00,
2013-02-11 18:12:00,50.1,29.0,29.95,South,174,4.0,11.0,45,0.00,,,0.11,weatherlink.com 1.10,2013-02-11 23:12:00,
2013-02-11 18:27:00,49.7,29.0,29.95,South,173,3.0,10.0,45,0.00,,,0.11,weatherlink.com 1.10,2013-02-11 23:27:00,
2013-02-11 18:42:00,49.6,29.0,29.95,South,173,2.0,12.0,45,0.00,,,0.11,weatherlink.com 1.10,2013-02-11 23:42:00,
2013-02-11 18:57:00,49.3,27.0,29.96,South,178,9.0,11.0,42,0.00,,,0.11,weatherlink.com 1.10,2013-02-11 23:57:00,
2013-02-11 19:12:00,49.1,26.0,29.96,SSE,165,9.0,13.0,41,0.00,,,0.11,weatherlink.com 1.10,2013-02-12 00:12:00,
2013-02-11 19:27:00,48.7,26.0,29.97,South,174,5.0,11.0,41,0.00,,,0.11,weatherlink.com 1.10,2013-02-12 00:27:00,
2013-02-11 19:42:00,48.5,24.0,29.97,South,173,2.0,11.0,39,0.00,,,0.11,weatherlink.com 1.10,2013-02-12 00:42:00,
2013-02-11 19:57:00,48.2,22.0,29.96,South,173,4.0,15.0,36,0.00,,,0.11,weatherlink.com 1.10,2013-02-12 00:57:00,
2013-02-11 20:12:00,48.2,19.0,29.95,South,172,3.0,9.0,32,0.00,,,0.11,weatherlink.com 1.10,2013-02-12 01:12:00,
2013-02-11 20:27:00,47.9,18.0,29.95,South,177,7.0,13.0,30,0.00,,,0.11,weatherlink.com 1.10,2013-02-12 01:27:00,
2013-02-11 20:42:00,47.8,20.0,29.97,South,174,2.0,11.0,33,0.00,,,0.11,weatherlink.com 1.10,2013-02-12 01:42:00,
2013-02-11 20:57:00,47.4,19.0,29.96,South,174,8.0,10.0,33,0.00,,,0.11,weatherlink.com 1.10,2013-02-12 01:57:00,
2013-02-11 21:12:00,46.8,21.0,29.96,South,176,1.0,14.0,36,0.00,,,0.11,weatherlink.com 1.10,2013-02-12 02:12:00,
2013-02-11 21:27:00,46.4,21.0,29.96,South,174,3.0,19.0,37,0.00,,,0.11,weatherlink.com 1.10,2013-02-12 02:27:00,
2013-02-11 21:42:00,46.2,22.0,29.96,South,173,3.0,12.0,38,0.00,,,0.11,weatherlink.com 1.10,2013-02-12 02:42:00,
2013-02-11 21:57:00,46.0,23.0,29.96,South,177,3.0,11.0,40,0.00,,,0.11,weatherlink.com 1.10,2013-02-12 02:57:00,
2013-02-11 22:12:00,45.7,22.0,29.95,South,176,1.0,13.0,40,0.00,,,0.11,weatherlink.com 1.10,2013-02-12 03:12:00,
2013-02-11 22:27:00,45.6,22.0,29.95,South,174,4.0,11.0,39,0.00,,,0.11,weatherlink.com 1.10,2013-02-12 03:27:00,
2013-02-11 22:42:00,45.4,22.0,29.94,South,174,2.0,15.0,39,0.00,,,0.11,weatherlink.com 1.10,2013-02-12 03:42:00,
2013-02-11 22:57:00,45.3,20.0,29.95,South,172,5.0,12.0,37,0.00,,,0.11,weatherlink.com 1.10,2013-02-12 03:57:00,
2013-02-11 23:12:00,45.3,20.0,29.94,South,176,6.0,12.0,36,0.00,,,0.11,weatherlink.com 1.10,2013-02-12 04:12:00,
2013-02-11 23:27:00,45.1,18.0,29.93,South,174,3.0,13.0,34,0.00,,,0.11,weatherlink.com 1.10,2013-02-12 04:27:00,
2013-02-11 23:42:00,45.1,17.0,29.93,South,174,5.0,12.0,33,0.00,,,0.11,weatherlink.com 1.10,2013-02-12 04:42:00,
2013-02-11 23:57:00,44.9,17.0,29.93,South,173,5.0,12.0,32,0.00,,,0.11,weatherlink.com 1.10,2013-02-12 04:57:00,